Location: Firdgum
(53.2488°N, 5.5615°E)
Time: 21:16:38
(UTC+00:00)

Cosmos 1850 Rocket - Pass Details

Date: 08 December 2019
Orbit: 753 x 786 km, 74.0° (Epoch: 17 January)

Event Time Altitude Azimuth Distance (km) Brightness Sun altitude
Exits shadow 06:04:12 14° 321° (NW) 2,092 5.7 -13.0°
Maximum altitude 06:08:30 44° 254° (WSW) 1,089 4.4 -12.4°
Drops below altitude 10° 06:13:31 10° 184° (S) 2,342 6.8 -11.7°
Sets 06:15:59 0° 178° (S) 3,265 7.6 -11.4°
